Weather History for KOGA - June, 2013

Change the Weather History Date:

Wednesday, June 12, 2013

  Actual Average Record
Temperature  
Mean Temperature 74 °F -  
Max Temperature 87 °F 80 °F 101 °F (1952)
Min Temperature 59 °F 53 °F 38 °F (1975)
Cooling Degree Days 8    
Growing Degree Days 24 (Base 50)    
Moisture  
Dew Point 55 °F    
Average Humidity 57    
Maximum Humidity 89    
Minimum Humidity 26    
Precipitation  
Precipitation 0.00 in - - ()
Sea Level Pressure  
Sea Level Pressure 30.03 in    
Wind  
Wind Speed 8 mph (North)    
Max Wind Speed 20 mph    
Max Gust Speed 26 mph    
Visibility 10 miles    
Events      
Averages and records for this station are not official NWS values.
T = Trace of Precipitation, MM = Missing Value Source: NWS Daily Summary

Daily Weather History Graph

Daily Weather History Graph

Search for Another Location

Airport or City:

Trip Planner

Search our weather history database for the weather conditions in past years. The results will help you decide how hot, cold, wet, or windy it might be!

Date:

Astronomy

Jun. 12, 2013 Rise Set
Actual Time 5:13 AM MDT 8:20 PM MDT
Civil Twilight 4:40 AM MDT 8:53 PM MDT
Nautical Twilight 3:57 AM MDT 9:36 PM MDT
Astronomical Twilight 3:06 AM MDT 10:27 PM MDT
Moon 8:56 AM MDT (6/12) 10:55 PM MDT (6/12)
Length of Visible Light 16h 13m
Length of Day
15h 06m
Waxing Crescent, 14% of the Moon is Illuminated
Jun 12
Waxing Crescent
Jun 16
First Quarter
Jun 23
Full
Jun 29
Last Quarter
Jul 8
New

Hourly Weather History & Observations

Time (MDT) Temp. Heat Index Dew Point Humidity Pressure Visibility Wind Dir Wind Speed Gust Speed Precip Events Conditions
12:15 AM 72.5 °F - 63.9 °F 74% 29.85 in 10.0 mi Calm Calm - N/A   Clear
12:35 AM 73.4 °F - 64.4 °F 73% 29.84 in 10.0 mi Calm Calm - N/A   Clear
12:55 AM 71.1 °F - 63.7 °F 77% 29.85 in 10.0 mi NW 9.2 mph - N/A   Clear
1:15 AM 69.1 °F - 64.0 °F 84% 29.85 in 10.0 mi Calm Calm - N/A   Clear
1:35 AM 67.8 °F - 63.5 °F 86% 29.86 in 10.0 mi NW 4.6 mph - N/A   Clear
1:55 AM 67.3 °F - 63.3 °F 87% 29.86 in 10.0 mi WNW 4.6 mph - N/A   Clear
2:15 AM 67.1 °F - 63.9 °F 89% 29.90 in 10.0 mi NNW 19.6 mph 26.5 mph N/A   Clear
2:35 AM 69.8 °F - 64.4 °F 83% 29.88 in 10.0 mi North 13.8 mph 23.0 mph N/A   Clear
2:55 AM 69.1 °F - 64.0 °F 84% 29.88 in 10.0 mi North 11.5 mph - N/A   Clear
3:15 AM 68.2 °F - 63.7 °F 85% 29.89 in 10.0 mi North 10.4 mph - N/A   Clear
3:35 AM 68.0 °F - 63.1 °F 84% 29.90 in 10.0 mi North 11.5 mph - N/A   Clear
3:55 AM 67.1 °F - 61.7 °F 83% 29.92 in 10.0 mi North 4.6 mph - N/A   Clear
4:15 AM 65.7 °F - 58.1 °F 77% 29.94 in 10.0 mi Calm Calm - N/A   Clear
4:35 AM 64.4 °F - 56.8 °F 76% 29.97 in 10.0 mi North 15.0 mph - N/A   Clear
4:55 AM 63.9 °F - 56.5 °F 77% 29.98 in 10.0 mi Calm Calm - N/A   Clear
5:15 AM 63.5 °F - 56.3 °F 77% 30.00 in 10.0 mi Calm Calm - N/A   Clear
5:35 AM 62.2 °F - 55.9 °F 80% 29.99 in 10.0 mi Calm Calm - N/A   Clear
5:55 AM 61.9 °F - 55.9 °F 81% 30.00 in 10.0 mi Calm Calm - N/A   Clear
6:15 AM 63.3 °F - 56.3 °F 78% 30.00 in 10.0 mi Calm Calm - N/A   Clear
6:35 AM 65.1 °F - 55.8 °F 72% 30.01 in 10.0 mi NNW 8.1 mph - N/A   Clear
6:55 AM 65.8 °F - 56.3 °F 71% 30.03 in 10.0 mi NW 8.1 mph - N/A   Clear
7:15 AM 67.5 °F - 56.1 °F 67% 30.04 in 10.0 mi NW 9.2 mph - N/A   Clear
7:35 AM 68.7 °F - 55.9 °F 64% 30.04 in 10.0 mi NNW 8.1 mph - N/A   Clear
7:55 AM 69.8 °F - 55.4 °F 60% 30.05 in 10.0 mi NW 9.2 mph - N/A   Clear
8:15 AM 70.3 °F - 55.6 °F 59% 30.05 in 10.0 mi NW 9.2 mph - N/A   Clear
8:35 AM 71.6 °F - 55.9 °F 58% 30.05 in 10.0 mi NW 9.2 mph - N/A   Clear
8:55 AM 72.9 °F - 55.6 °F 55% 30.05 in 10.0 mi WNW 9.2 mph - N/A   Clear
9:15 AM 73.9 °F - 55.9 °F 53% 30.05 in 10.0 mi NW 9.2 mph - N/A   Clear
9:35 AM 74.7 °F - 56.1 °F 52% 30.04 in 10.0 mi NNW 10.4 mph - N/A   Clear
9:55 AM 75.4 °F - 56.5 °F 52% 30.04 in 10.0 mi NNW 12.7 mph 17.3 mph N/A   Clear
10:15 AM 76.8 °F - 56.3 °F 49% 30.05 in 10.0 mi NNW 11.5 mph - N/A   Clear
10:35 AM 78.6 °F - 55.9 °F 46% 30.05 in 10.0 mi NW 13.8 mph - N/A   Clear
10:55 AM 79.5 °F - 55.4 °F 43% 30.06 in 10.0 mi NNW 11.5 mph - N/A   Clear
11:15 AM 80.8 °F 80.4 °F 53.8 °F 39% 30.05 in 10.0 mi NNW 12.7 mph 18.4 mph N/A   Clear
11:35 AM 82.0 °F - 52.9 °F 36% 30.05 in 10.0 mi NNW 9.2 mph - N/A   Clear
11:55 AM 82.9 °F - 52.3 °F 35% 30.06 in 10.0 mi NNW 10.4 mph - N/A   Clear
12:15 PM 83.1 °F - 51.4 °F 33% 30.06 in 10.0 mi NW 10.4 mph 16.1 mph N/A   Clear
12:35 PM 84.0 °F - 50.2 °F 31% 30.05 in 10.0 mi NNW 8.1 mph 16.1 mph N/A   Clear
12:55 PM 84.6 °F - 50.0 °F 30% 30.05 in 10.0 mi North 5.8 mph - N/A   Clear
1:15 PM 85.6 °F - 49.1 °F 28% 30.05 in 10.0 mi North 9.2 mph 16.1 mph N/A   Clear
1:35 PM 86.0 °F - 48.6 °F 27% 30.05 in 10.0 mi NNW 8.1 mph - N/A   Clear
1:55 PM 86.4 °F - 47.8 °F 26% 30.05 in 10.0 mi NNW 8.1 mph 16.1 mph N/A   Clear
2:15 PM 86.5 °F - 48.7 °F 27% 30.05 in 10.0 mi NNW 16.1 mph - N/A   Clear
2:35 PM 86.5 °F - 49.5 °F 28% 30.05 in 10.0 mi North 9.2 mph 17.3 mph N/A   Clear
2:55 PM 87.1 °F - 49.5 °F 27% 30.05 in 10.0 mi NNE 10.4 mph 18.4 mph N/A   Clear
3:15 PM 87.1 °F - 49.5 °F 27% 30.05 in 10.0 mi NE 11.5 mph 23.0 mph N/A   Clear
3:35 PM 86.9 °F - 51.3 °F 29% 30.06 in 10.0 mi NE 13.8 mph 19.6 mph N/A   Clear
3:55 PM 85.1 °F 83.8 °F 55.6 °F 36% 30.06 in 10.0 mi NE 19.6 mph 26.5 mph N/A   Clear
4:15 PM 83.1 °F 82.3 °F 55.6 °F 39% 30.06 in 10.0 mi NE 18.4 mph 26.5 mph N/A   Clear
4:35 PM 81.0 °F 80.8 °F 55.8 °F 42% 30.07 in 10.0 mi NE 19.6 mph 23.0 mph N/A   Clear
4:55 PM 79.3 °F - 55.8 °F 44% 30.08 in 10.0 mi NE 18.4 mph 23.0 mph N/A   Clear
5:15 PM 77.9 °F - 54.7 °F 45% 30.08 in 10.0 mi NNE 17.3 mph 25.3 mph N/A   Clear
5:35 PM 76.1 °F - 54.3 °F 47% 30.08 in 10.0 mi NE 18.4 mph - N/A   Clear
5:55 PM 74.3 °F - 54.1 °F 49% 30.09 in 10.0 mi NE 15.0 mph - N/A   Clear
6:15 PM 73.0 °F - 53.1 °F 49% 30.10 in 10.0 mi NE 16.1 mph 20.7 mph N/A   Clear
6:35 PM 73.6 °F - 53.4 °F 49% 30.10 in 10.0 mi NE 15.0 mph - N/A   Clear
6:55 PM 71.6 °F - 52.7 °F 51% 30.10 in 10.0 mi NE 16.1 mph 25.3 mph N/A   Clear
7:15 PM 71.2 °F - 52.3 °F 51% 30.12 in 10.0 mi East 11.5 mph - N/A   Clear
7:35 PM 70.2 °F - 52.0 °F 52% 30.12 in 10.0 mi ENE 17.3 mph 20.7 mph N/A   Clear
7:55 PM 68.9 °F - 52.2 °F 55% 30.11 in 10.0 mi ENE 15.0 mph - N/A   Clear
8:15 PM 67.5 °F - 52.2 °F 58% 30.11 in 10.0 mi ENE 12.7 mph - N/A   Clear
8:35 PM 66.7 °F - 51.8 °F 59% 30.12 in 10.0 mi ENE 12.7 mph - N/A   Clear
8:55 PM 65.8 °F - 51.8 °F 60% 30.13 in 10.0 mi East 13.8 mph 17.3 mph N/A   Clear
9:15 PM 65.3 °F - 51.3 °F 60% 30.13 in 10.0 mi ENE 16.1 mph - N/A   Clear
9:35 PM 64.4 °F - 51.6 °F 63% 30.12 in 10.0 mi ENE 15.0 mph 21.9 mph N/A   Clear
9:55 PM 63.7 °F - 51.1 °F 64% 30.13 in 10.0 mi ENE 13.8 mph 21.9 mph N/A   Clear
10:15 PM 63.1 °F - 50.7 °F 64% 30.13 in 10.0 mi East 16.1 mph 21.9 mph N/A   Clear
10:35 PM 62.8 °F - 50.5 °F 64% 30.12 in 10.0 mi ENE 13.8 mph - N/A   Clear
10:55 PM 61.9 °F - 50.9 °F 67% 30.15 in 10.0 mi East 13.8 mph 18.4 mph N/A   Clear
11:35 PM 60.3 °F - 51.1 °F 72% 30.14 in 10.0 mi East 12.7 mph 18.4 mph N/A   Clear
11:55 PM 59.9 °F - 50.9 °F 72% 30.15 in 10.0 mi East 13.8 mph 18.4 mph N/A   Clear